Total_Precipitation_Accumulation
0.18 0.43 0.78 1.27 1.98 2.54 2.63 2.00 1.47 1.25 1.05 0.95 0.76 0.68 0.78 1.08 1.46 2.35 2.51 2.20 1.61 1.60 1.80 1.78 1.81 1.60 1.54 1.52 1.52 1.55 1.58 1.65 1.60 1.71 2.05 2.29 2.54 2.87 3.06 3.28 3.52 3.81 3.79 3.34 2.98 2.55 2.32 2.29 2.15
0.33 0.56 0.95 1.57 2.32 2.92 2.68 1.79 1.34 1.13 0.85 0.75 0.70 0.67 0.80 0.98 1.08 1.51 2.03 1.82 1.32 1.30 1.37 1.33 1.53 1.54 1.48 1.39 1.31 1.32 1.41 1.52 1.59 1.73 2.04 2.33 2.57 2.91 3.05 3.22 3.42 3.53 3.29 3.02 2.56 2.21 2.09 2.00 1.80
0.53 0.76 1.03 1.55 1.92 2.44 2.19 1.60 1.10 0.86 0.73 0.76 0.90 0.82 1.04 1.40 1.45 1.74 1.73 1.36 1.16 1.15 1.16 1.39 1.47 1.42 1.40 1.25 1.23 1.28 1.38 1.46 1.57 1.72 2.02 2.34 2.70 2.90 2.98 2.98 3.18 3.04 2.82 2.64 2.40 2.18 1.94 1.75 1.58
0.57 0.85 1.05 1.30 1.38 1.32 1.39 1.39 0.98 0.94 0.90 0.77 0.86 1.18 1.36 1.51 1.51 1.69 1.57 1.28 1.00 1.04 1.12 1.31 1.42 1.38 1.48 1.32 1.24 1.36 1.45 1.57 1.69 1.94 2.16 2.24 2.52 2.64 2.66 2.78 3.00 2.87 2.69 2.47 2.24 1.96 1.71 1.52 1.36
0.49 0.81 1.13 1.21 1.25 1.10 1.02 1.01 0.82 0.88 0.90 0.84 0.89 1.43 1.84 1.84 1.45 1.40 1.37 1.27 0.99 1.18 1.31 1.28 1.39 1.40 1.48 1.42 1.27 1.40 1.59 1.76 1.79 1.94 2.06 2.07 2.24 2.33 2.47 2.69 2.79 2.64 2.45 2.20 2.02 1.78 1.50 1.39 1.36
0.48 0.79 1.13 1.11 1.11 0.89 0.85 0.82 0.74 0.78 0.85 0.92 1.10 1.56 2.14 2.07 1.70 1.58 1.49 1.36 1.11 1.14 1.27 1.33 1.57 1.56 1.56 1.53 1.39 1.43 1.64 1.75 1.81 1.82 1.80 1.88 2.03 2.16 2.39 2.60 2.68 2.44 2.09 1.94 1.87 1.68 1.47 1.37 1.35
0.50 0.58 0.87 0.82 0.92 0.89 0.77 0.64 0.69 0.91 1.15 1.19 1.28 1.71 2.11 2.50 2.22 1.89 1.79 1.67 1.39 1.28 1.27 1.33 1.50 1.47 1.57 1.67 1.59 1.64 1.81 1.85 1.79 1.78 1.78 1.83 2.01 2.19 2.36 2.56 2.67 2.31 1.95 1.84 1.74 1.62 1.46 1.33 1.34
0.37 0.36 0.51 0.69 0.79 0.84 0.67 0.57 0.60 0.80 1.18 1.13 1.18 1.54 2.10 2.14 2.10 2.26 2.22 2.20 1.89 1.70 1.49 1.43 1.56 1.64 1.56 1.63 1.69 1.82 1.90 1.97 2.06 2.09 2.16 2.26 2.35 2.31 2.47 2.52 2.57 2.28 2.02 1.90 1.79 1.71 1.52 1.43 1.40
0.22 0.32 0.35 0.52 0.62 0.61 0.47 0.48 0.51 0.67 0.84 1.01 1.22 1.30 1.58 1.52 1.74 2.18 2.45 2.71 2.62 2.06 1.85 1.66 1.50 1.55 1.58 1.62 1.83 2.22 2.24 2.18 2.29 2.48 2.54 2.58 2.79 2.83 2.99 2.75 2.69 2.45 2.31 2.25 2.11 2.05 1.90 1.68 1.56
0.17 0.29 0.25 0.26 0.32 0.34 0.33 0.37 0.40 0.70 1.14 1.53 1.67 1.57 1.55 1.61 2.00 2.32 2.38 2.50 2.66 2.23 1.89 1.82 1.70 1.59 1.54 1.49 1.88 2.48 2.33 2.23 2.36 2.59 2.56 2.79 3.28 3.57 3.18 3.27 3.25 3.09 3.01 2.90 2.86 2.84 2.40 1.92 1.90
0.09 0.14 0.17 0.19 0.21 0.22 0.26 0.33 0.38 0.65 1.24 1.62 1.77 1.78 1.81 1.80 2.20 2.56 2.71 2.56 2.57 2.38 2.03 1.94 1.86 1.84 1.87 1.99 1.97 2.29 2.50 2.60 2.67 2.72 2.79 3.10 3.27 3.50 3.63 3.67 3.74 3.81 3.54 3.24 3.43 3.29 2.55 2.52 2.88
0.05 0.07 0.11 0.16 0.19 0.22 0.24 0.28 0.48 0.67 1.06 1.38 1.44 1.83 2.05 2.02 2.38 2.63 2.79 2.93 2.78 2.64 2.32 2.10 1.98 2.05 2.17 2.13 2.17 2.25 2.46 2.59 2.77 2.94 2.91 3.27 3.77 3.94 4.12 4.10 3.93 4.08 3.90 3.97 3.87 3.88 3.35 3.32 3.01
0.05 0.07 0.09 0.12 0.17 0.21 0.25 0.30 0.36 0.69 0.87 1.11 1.34 1.73 1.97 2.03 2.41 2.74 3.02 3.13 3.08 2.80 2.51 2.44 2.16 2.15 2.24 2.44 2.60 2.38 2.80 2.92 3.02 3.24 3.37 3.53 3.90 4.05 4.23 4.27 4.27 3.82 3.80 4.00 4.33 4.10 4.27 4.22 3.70
0.05 0.06 0.09 0.11 0.15 0.20 0.35 0.45 0.46 0.85 0.91 1.05 1.33 1.77 1.88 1.93 2.18 2.22 2.59 2.95 3.04 2.77 2.62 2.59 2.41 2.48 2.58 2.68 2.84 2.94 3.19 3.44 3.39 3.45 3.57 3.72 3.99 4.36 4.48 4.50 4.43 3.93 3.76 4.05 4.37 4.28 4.79 4.67 4.42
0.06 0.11 0.17 0.19 0.22 0.29 0.40 0.69 0.74 0.95 1.03 1.26 1.31 1.51 1.70 1.74 1.91 2.13 2.40 2.74 2.82 2.58 2.69 2.87 2.92 3.17 3.29 3.29 3.29 3.29 3.48 3.62 3.81 4.17 4.24 4.36 4.34 4.56 4.43 4.44 4.28 4.10 4.00 4.15 4.31 4.44 4.80 4.48 4.39
0.11 0.22 0.34 0.36 0.32 0.36 0.58 1.20 1.08 1.14 1.12 1.20 1.20 1.37 1.48 1.58 1.83 2.13 2.29 2.58 2.77 2.65 2.73 2.96 3.06 3.46 3.66 3.75 3.89 3.81 3.85 3.94 4.29 4.55 4.80 4.77 4.58 4.42 4.58 4.33 4.11 4.19 4.11 4.34 4.73 4.75 4.82 4.90 4.77
0.19 0.26 0.37 0.44 0.31 0.31 0.54 0.98 0.93 1.01 1.23 1.15 1.14 1.23 1.26 1.38 1.55 1.76 2.04 2.40 2.73 2.98 3.24 3.59 3.72 3.65 3.75 3.97 4.18 3.99 4.08 4.15 4.19 4.36 4.71 4.64 4.27 4.10 4.59 4.49 4.48 4.38 4.58 4.54 4.18 4.81 5.05 5.05 4.98
0.16 0.22 0.32 0.39 0.36 0.32 0.47 0.69 0.84 0.94 1.06 1.17 1.17 1.27 1.35 1.52 1.77 1.98 2.33 2.57 2.84 3.35 3.74 3.98 4.01 4.25 4.55 4.77 4.70 4.51 4.27 4.19 4.09 4.19 4.43 4.34 4.27 4.15 4.51 4.35 4.37 4.53 4.96 5.06 4.91 5.24 5.12 4.91 4.97
0.16 0.23 0.29 0.32 0.38 0.43 0.52 0.60 0.88 1.12 1.24 1.40 1.56 1.78 1.96 2.15 2.23 2.44 2.85 3.12 3.31 3.45 3.68 3.95 4.34 4.74 4.88 4.72 4.67 4.71 4.60 4.47 4.14 4.03 4.19 4.24 3.98 3.99 4.43 4.16 4.63 4.63 4.82 4.95 4.85 5.09 4.94 4.70 4.77
0.17 0.24 0.33 0.38 0.40 0.42 0.61 0.72 0.93 1.37 1.55 1.52 1.56 1.55 1.60 2.04 2.27 2.52 2.86 3.05 3.02 3.19 3.47 3.86 4.32 4.67 4.60 4.75 5.01 5.03 4.93 4.41 4.16 4.09 4.18 4.04 3.78 3.66 3.80 4.42 4.38 4.46 4.69 4.74 4.71 4.76 4.48 4.18 4.57
0.17 0.21 0.28 0.36 0.50 0.48 0.62 1.07 1.21 1.49 1.64 1.50 1.44 1.45 1.41 1.60 1.93 2.11 2.32 2.54 2.75 3.16 3.59 3.93 4.26 4.40 4.45 4.71 4.89 4.65 4.53 4.15 4.12 4.17 4.10 3.88 3.73 3.66 3.81 4.16 4.23 4.32 4.21 4.45 4.68 4.51 4.43 4.31 4.38
0.19 0.17 0.20 0.29 0.50 0.65 0.72 1.41 1.66 1.84 1.74 1.43 1.44 1.49 1.59 1.71 1.79 1.92 2.00 2.33 2.72 3.13 3.71 4.15 4.18 4.26 4.16 4.36 4.53 4.40 4.12 3.94 3.85 3.85 3.65 3.56 3.45 3.40 3.54 3.78 4.01 4.17 4.06 4.24 4.07 4.21 4.41 4.48 4.30
0.15 0.15 0.17 0.27 0.41 0.65 0.78 1.22 1.71 1.79 1.73 1.37 1.26 1.46 1.68 1.66 1.70 1.94 1.91 2.13 2.42 2.84 3.26 3.70 4.06 4.15 3.99 3.98 4.12 4.30 4.12 3.86 3.64 3.50 3.45 3.43 3.43 3.25 3.28 3.50 3.73 3.84 3.76 3.78 3.98 4.34 4.28 4.25 4.17
0.12 0.17 0.27 0.40 0.62 1.05 0.82 0.93 1.39 1.66 1.56 1.28 1.27 1.39 1.56 1.71 1.70 1.86 2.14 2.22 2.38 2.66 3.05 3.32 3.54 3.54 3.52 3.52 3.60 3.74 3.82 3.80 3.56 3.33 3.37 3.37 3.28 3.16 3.13 3.24 3.57 3.64 3.58 3.58 3.75 3.87 3.93 3.97 4.11
0.14 0.30 0.75 1.18 1.44 1.24 0.83 0.92 1.31 1.28 1.09 1.01 1.09 1.34 1.58 1.85 1.85 1.88 2.08 2.22 2.32 2.43 2.63 2.81 2.88 2.94 2.93 2.97 2.98 3.00 3.14 3.23 3.12 3.04 3.12 3.17 3.10 3.01 3.02 3.03 3.20 3.16 3.16 3.28 3.57 3.62 3.56 3.60 3.75
0.18 0.33 0.79 1.08 1.19 1.09 0.99 1.22 1.31 1.06 0.92 0.93 1.01 1.19 1.46 1.63 1.67 1.76 1.85 1.81 1.83 1.89 2.03 2.18 2.27 2.32 2.29 2.39 2.51 2.53 2.75 2.79 2.82 2.95 2.82 2.89 2.86 2.87 2.83 2.74 2.73 2.69 2.76 2.88 3.30 3.38 3.32 3.45 3.45
0.26 0.36 0.38 0.61 0.74 1.13 1.34 1.44 1.33 1.01 1.16 1.14 1.23 1.27 1.27 1.32 1.36 1.38 1.41 1.48 1.59 1.64 1.71 1.83 1.93 1.97 1.92 2.00 2.18 2.23 2.31 2.46 2.60 2.70 2.57 2.45 2.54 2.46 2.61 2.56 2.43 2.40 2.56 2.76 2.96 3.02 3.03 3.19 3.17
0.28 0.42 0.55 0.81 1.09 1.29 1.44 1.70 1.88 1.66 1.61 1.51 1.63 1.76 1.45 1.17 1.19 1.22 1.21 1.26 1.30 1.35 1.50 1.66 1.76 1.94 1.99 2.00 2.10 2.00 2.10 2.22 2.38 2.45 2.30 2.31 2.44 2.45 2.43 2.43 2.34 2.31 2.33 2.43 2.70 2.72 2.81 2.87 2.91
0.38 0.48 0.57 0.74 0.86 1.17 1.58 1.79 1.53 1.72 1.78 1.71 1.58 1.56 1.41 1.06 0.97 1.07 1.01 1.04 1.12 1.19 1.34 1.51 1.77 1.98 1.97 1.84 1.93 1.98 1.97 2.10 2.16 2.17 2.08 2.19 2.32 2.49 2.46 2.45 2.46 2.34 2.27 2.36 2.50 2.35 2.55 2.58 2.63
0.33 0.48 0.58 0.78 0.87 0.97 1.26 1.56 1.16 1.35 1.35 1.24 1.26 1.12 1.04 0.96 0.78 0.89 0.94 0.90 0.96 1.02 1.15 1.34 1.56 1.75 1.80 1.75 1.78 1.93 2.01 1.99 1.94 1.89 1.93 1.99 2.03 2.13 2.15 2.12 2.13 2.17 2.34 2.46 2.38 2.34 2.38 2.45 2.40